Regional Weather Roundup
Issued by NWS Albany, NY

Home | Current Version | Previous Version | Text Only | Print | Product List | Glossary On
Versions: 1 2 3 4 5 6 7 8 9 10 11 12 13 14 15 16 17 18 19 20 21 22 23 24 25 26 27 28 29 30 31 32 33 34 35 36 37 38 39 40 41 42 43 44 45 46 47 48 49 50
000
ASUS41 KALY 020510
RWRALY

NEW YORK STATE HOURLY WEATHER ROUNDUP
NATIONAL WEATHER SERVICE ALBANY NY
100 AM EDT SUN AUG 02 2015

NOTE: "FAIR" INDICATES FEW OR NO CLOUDS BELOW 12,000 FEET WITH NO
SIGNIFICANT WEATHER AND/OR NO OBSTRUCTIONS TO VISIBILITY.

NYZ032-033-038>043-046>054-057>066-NYZ062>081-020600-
EAST


CITY           SKY/WX    TMP DP  RH WIND       PRES   REMARKS
ALBANY         CLEAR     64  54  69 CALM      29.86S
GLENS FALLS    CLEAR     58  54  86 CALM      29.85S
POUGHKEEPSIE   CLEAR     63  58  83 CALM      29.86S
NEWBURGH       CLEAR     66  61  82 CALM      29.89S
MONTGOMERY     CLEAR     62  58  86 CALM      29.88R
WHITE PLAINS   CLEAR     69  58  67 N6        29.86S
ISLIP          CLEAR     72  58  61 CALM      29.84R
NEW YORK CITY  MOCLDY    78  59  51 NW6       29.85R
CENTRAL PARK   MOCLDY    77  54  44 CALM      29.89R
$$

NYZ005>009-017-018-044>046-055-056-020600-
CENTRAL


CITY           SKY/WX    TMP DP  RH WIND       PRES   REMARKS
FULTON         CLEAR     61  57  87 S3        29.85S
SYRACUSE       PTCLDY    66  58  75 CALM      29.85S
ROME           CLEAR     57  54  89 SE3       29.88S
ELMIRA         CLEAR     58  55  90 CALM      29.90S
BINGHAMTON     MOCLDY    63  54  72 SW3       29.92S
MONTICELLO     CLEAR     57  55  94 CALM      29.93S
$$

NYZ026>034-041>043-020600-
NORTH


CITY           SKY/WX    TMP DP  RH WIND       PRES   REMARKS
WATERTOWN      CLEAR     63  60  90 S3        29.83S
FORT DRUM      NOT AVBL
MASSENA        LGT RAIN  58  55  90 S7        29.80F
SARANAC LAKE   MOCLDY    54  52  93 SW7       29.85F
PLATTSBURGH    MOCLDY    60  58  92 NW3       29.80S
$$

NYZ001>004-010>016-019>021-020600-
WEST


CITY           SKY/WX    TMP DP  RH WIND       PRES   REMARKS
NIAGARA FALLS  CLEAR     63  58  83 SW8       29.85S
BUFFALO        PTCLDY    66  59  78 SW6       29.87S
DUNKIRK        PTCLDY    68  58  70 S9        29.88S
JAMESTOWN      CLEAR     61  54  77 SW3       29.94S
WELLSVILLE     CLEAR     62  51  67 SW6       29.97S
ROCHESTER      CLEAR     63  58  83 SW8       29.86S
PENN YAN       CLEAR     65  57  75 S6        29.89S
$$

             KEY
       WCI = WIND CHILL INDEX
       VSB = VISIBILITY
       HX  = HEAT INDEX
$$


USA.gov is the U.S. government's official web portal to all federal, state and local government web resources and services.